Ketchikan, AK

10:37 AM AKDT on October 19, 2018 (GMT -0800)
Ketchikan International

Weather History for PAKT - February, 2018

Change the Weather History Date:

Saturday, February 24, 2018

  Actual Average Record
Temperature  
Mean Temperature 34 °F -  
Max Temperature 36 °F 42 °F 55 °F (1964)
Min Temperature 32 °F 31 °F 8 °F (1957)
Degree Days  
Heating Degree Days 31    
Moisture  
Dew Point 32 °F    
Average Humidity 91    
Maximum Humidity 100    
Minimum Humidity 79    
Precipitation  
Precipitation 0.24 in - - ()
Sea Level Pressure  
Sea Level Pressure 29.67 in    
Wind  
Wind Speed 7 mph (SSE)    
Max Wind Speed 18 mph    
Max Gust Speed -    
Visibility 7 miles    
Events Fog , Rain , Snow    
Averages and records for this station are not official NWS values.
T = Trace of Precipitation, MM = Missing Value Source: NWS Daily Summary

Daily Weather History Graph

Daily Weather History Graph

Search for Another Location

Airport or City:

Astronomy

Feb. 24, 2018 Rise Set
Actual Time 6:48 AM AKST 5:12 PM AKST
Civil Twilight 6:11 AM AKST 5:49 PM AKST
Nautical Twilight 5:29 AM AKST 6:31 PM AKST
Astronomical Twilight 4:47 AM AKST 7:14 PM AKST
Moon 11:10 AM AKST (2/24) 2:49 AM AKST (2/24)
Length of Visible Light 11h 37m
Length of Day
10h 23m
Waxing Gibbous, 67% of the Moon is Illuminated
Feb 24
Waxing Gibbous
Mar 1
Full
Mar 9
Last Quarter
Mar 17
New
Mar 24
First Quarter

Hourly Weather History & Observations

Time (AKST) Temp. Windchill Dew Point Humidity Pressure Visibility Wind Dir Wind Speed Gust Speed Precip Events Conditions
12:53 AM 36.0 °F 30.3 °F 30.9 °F 82% 29.92 in 10.0 mi NW 6.9 mph - N/A   Clear
1:53 AM 36.0 °F 31.1 °F 30.0 °F 79% 29.94 in 10.0 mi NW 5.8 mph - N/A   Clear
2:53 AM 34.0 °F 31.0 °F 30.0 °F 85% 29.94 in 10.0 mi NW 3.5 mph - N/A   Clear
3:53 AM 33.1 °F - 28.9 °F 85% 29.94 in 10.0 mi Calm Calm - N/A   Clear
4:53 AM 32.0 °F 27.5 °F 28.0 °F 85% 29.93 in 10.0 mi SSW 4.6 mph - N/A   Clear
5:53 AM 32.0 °F 27.5 °F 28.9 °F 88% 29.91 in 10.0 mi ESE 4.6 mph - N/A   Clear
6:03 AM 33.1 °F 28.7 °F 30.0 °F 89% 29.90 in 10.0 mi ESE 4.6 mph - N/A   Partly Cloudy
6:53 AM 33.8 °F 28.6 °F 30.2 °F 87% 29.90 in 10.0 mi South 5.8 mph - N/A   Overcast
6:58 AM 34.0 °F 28.8 °F 30.0 °F 85% 29.89 in 10.0 mi South 5.8 mph - N/A   Overcast
7:53 AM 35.6 °F 30.7 °F 30.2 °F 81% 29.87 in 7.0 mi South 5.8 mph - N/A   Overcast
8:15 AM 35.6 °F 30.7 °F 32.0 °F 87% 29.85 in 3.0 mi South 5.8 mph - N/A Snow Light Snow
8:16 AM 35.6 °F 30.7 °F 32.0 °F 87% 29.84 in 3.0 mi South 5.8 mph - N/A Snow Light Snow
8:53 AM 33.8 °F 29.6 °F 33.8 °F 100% 29.82 in 3.0 mi South 4.6 mph - N/A Snow Light Snow
9:53 AM 35.6 °F 29.9 °F 33.8 °F 93% 29.77 in 3.0 mi South 6.9 mph - N/A   Overcast
9:59 AM 35.1 °F 30.1 °F 33.1 °F 92% 29.76 in 10.0 mi South 5.8 mph - N/A   Overcast
10:49 AM 35.6 °F 27.5 °F 32.0 °F 87% 29.74 in 2.5 mi SE 11.5 mph - N/A Snow Light Snow
10:53 AM 35.6 °F 26.6 °F 32.0 °F 87% 29.74 in 3.0 mi SE 13.8 mph - N/A Snow Light Snow
11:05 AM 33.8 °F 23.9 °F 32.0 °F 93% 29.72 in 3.0 mi SE 15.0 mph - N/A Snow Light Snow
11:53 AM 33.8 °F 23.9 °F 33.8 °F 100% 29.67 in 2.0 mi SE 15.0 mph - N/A Snow Light Snow
12:53 PM 33.8 °F 23.9 °F 33.8 °F 100% 29.60 in 0.5 mi SE 15.0 mph - N/A Fog , Snow Snow
1:36 PM 33.8 °F 23.2 °F 33.8 °F 100% 29.55 in 0.8 mi SE 17.3 mph - N/A Snow Light Snow
1:53 PM 34.0 °F 23.0 °F 33.1 °F 96% 29.55 in 0.8 mi SE 18.4 mph - 0.10 in Snow Light Snow
2:19 PM 34.0 °F 24.2 °F 33.1 °F 96% 29.51 in 3.0 mi SE 15.0 mph - 0.03 in Snow Light Snow
2:53 PM 35.1 °F 27.4 °F 34.0 °F 96% 29.49 in 3.0 mi ESE 10.4 mph - 0.07 in Snow Light Snow
3:27 PM 36.0 °F 29.0 °F 34.0 °F 93% 29.46 in 10.0 mi SE 9.2 mph - 0.00 in   Overcast
3:53 PM 36.0 °F 29.6 °F 34.0 °F 93% 29.45 in 10.0 mi SE 8.1 mph - 0.00 in   Overcast
4:53 PM 36.0 °F 30.3 °F 34.0 °F 93% 29.44 in 10.0 mi South 6.9 mph - 0.00 in Rain Light Rain
5:53 PM 36.0 °F 31.1 °F 34.0 °F 93% 29.43 in 10.0 mi SE 5.8 mph - 0.04 in Rain Light Rain
6:53 PM 36.0 °F 31.1 °F 34.0 °F 93% 29.42 in 7.0 mi SE 5.8 mph - 0.02 in Rain Light Rain
7:53 PM 36.0 °F 32.1 °F 34.0 °F 93% 29.42 in 10.0 mi SSE 4.6 mph - 0.00 in   Overcast
8:53 PM 35.1 °F 30.1 °F 33.1 °F 92% 29.42 in 10.0 mi SSE 5.8 mph - 0.01 in   Mostly Cloudy
9:53 PM 35.1 °F 32.2 °F 32.0 °F 89% 29.42 in 10.0 mi SSE 3.5 mph - N/A   Clear
10:53 PM 35.1 °F 29.3 °F 33.1 °F 92% 29.42 in 10.0 mi SSE 6.9 mph - N/A   Scattered Clouds
11:23 PM 35.1 °F 29.3 °F 33.1 °F 92% 29.42 in 10.0 mi SSE 6.9 mph - N/A   Mostly Cloudy
11:53 PM 35.1 °F 29.3 °F 33.1 °F 92% 29.42 in 10.0 mi SSE 6.9 mph - N/A   Overcast